This demonstration page uses our WeatherBlox Daily Observations layout. Learn more.

Left ArrowRight Arrow

39.92423, -83.80882

Hourly Observations for March 27, 2021

Temp ( °F °C ) Dew Point ( °F °C ) Humidity (%) Winds ( mph kmh ) Pressure ( in mb ) Visibility ( mi km ) Precip ( " mm )
12:56 am 00:56 Cloudy 49 9.4 47 8.3 93 93 N N/A 30.14 1021 10 16 N/A
1:17 am 01:17 Partly Cloudy 48 9 48 9 100 100 NNW 3 6 30.15 1021 10 16 N/A
1:56 am 01:56 Clear 45 7.2 45 7.2 100 100 N N/A 30.15 1021 10 16 N/A
2:56 am 02:56 Clear with Mist and Fog 44 6.7 44 6.7 100 100 N 3 6 30.14 1021 4 6 N/A
3:56 am 03:56 Clear with Mist and Fog 43 6.1 43 6.1 100 100 ENE 5 7 30.14 1021 3 5 N/A
4:06 am 04:06 Clear with Mist and Fog 43 6 43 6 100 100 NE 5 7 30.15 1021 2 3 N/A
4:35 am 04:35 Clear with Mist and Fog 43 6 43 6 100 100 E 5 7 30.15 1021 3 5 N/A
4:56 am 04:56 Clear with Mist and Fog 42 5.6 42 5.6 100 100 E 6 9 30.14 1021 4 6 N/A
5:26 am 05:26 Clear with Mist and Fog 41 5 41 5 100 100 E 5 7 30.16 1021 2 3 N/A
5:32 am 05:32 Clear with Mist and Fog 41 5 41 5 100 100 E 5 7 30.16 1021 1 1 N/A
5:40 am 05:40 Clear with Light Rain 41 5 41 5 100 100 E 5 7 30.16 1021 1 1 N/A
5:45 am 05:45 Clear with Light Rain 41 5 41 5 100 100 E 5 7 30.16 1021 1 2 N/A
5:52 am 05:52 Clear with Light Rain 41 5 41 5 100 100 E 3 6 30.16 1021 1 1 N/A
5:56 am 05:56 Clear with Light Rain 41 5 41 5 100 100 E 3 6 30.14 1021 1 1 N/A
6:28 am 06:28 Clear with Light Rain 43 6 43 6 100 100 SE 5 7 30.17 1022 1 2 N/A
6:31 am 06:31 Clear with Light Rain 43 6 43 6 100 100 ESE 5 7 30.17 1022 2 3 N/A
6:45 am 06:45 Clear with Light Rain 41 5 41 5 100 100 E 6 9 30.17 1022 1 2 N/A
6:47 am 06:47 Clear with Light Rain 41 5 41 5 100 100 E 6 9 30.17 1022 1 1 N/A
6:56 am 06:56 Clear with Light Rain 38 3.3 38 3.3 100 100 ENE 7 11 30.15 1021 0 0 N/A
7:14 am 07:14 Clear with Light Rain 37 3 37 3 100 100 ENE 7 11 30.17 1022 1 1 N/A
7:30 am 07:30 Sunny with Light Rain 39 4 39 4 100 100 E 6 9 30.17 1022 1 2 N/A
7:32 am 07:32 Sunny with Light Rain 39 4 39 4 100 100 E 6 9 30.17 1022 1 1 N/A
7:36 am 07:36 Mostly Cloudy with Light Rain 37 3 37 3 100 100 E 5 7 30.17 1022 0 0 N/A
7:52 am 07:52 Sunny with Light Rain 37 3 37 3 100 100 E 7 11 30.16 1021 0 0 N/A
7:56 am 07:56 Sunny with Light Rain 38 3.3 38 3.3 100 100 E 7 11 30.14 1021 0 0 N/A
8:11 am 08:11 Sunny with Light Rain 39 4 39 4 100 100 ESE 7 11 30.16 1021 1 1 N/A
8:13 am 08:13 Sunny with Mist and Fog 41 5 41 5 100 100 E 7 11 30.15 1021 1 2 N/A
8:24 am 08:24 Sunny with Mist and Fog 43 6 43 6 100 100 E 8 13 30.15 1021 3 4 N/A
8:36 am 08:36 Sunny with Mist and Fog 45 7 45 7 100 100 E 7 11 30.14 1021 3 5 N/A
8:56 am 08:56 Sunny with Mist and Fog 46 7.8 46 7.8 100 100 E 10 17 30.13 1020 4 6 N/A
9:56 am 09:56 Sunny 51 10.6 51 10.6 100 100 ESE 13 20 30.11 1020 9 14 N/A
10:56 am 10:56 Sunny 54 12.2 48 8.9 80 80 ESE 13 20 30.10 1019 10 16 N/A
11:56 am 11:56 Sunny 57 13.9 50 10 78 78 SE 15 24 30.08 1019 10 16 N/A
12:56 pm 12:56 Sunny 59 15 50 10 72 72 ESE 12 19 30.06 1018 10 16 N/A
1:56 pm 13:56 Sunny 61 16.1 51 10.6 70 70 SSE 10 17 30.03 1017 10 16 N/A
2:56 pm 14:56 Sunny 66 18.9 50 10 56 56 SSE 15 24 30.00 1016 10 16 N/A
3:56 pm 15:56 Sunny 68 20 47 8.3 47 47 S 10 17 29.96 1015 10 16 N/A
4:56 pm 16:56 Sunny 70 21.1 48 8.9 46 46 S 9 15 29.93 1014 10 16 N/A
5:56 pm 17:56 Sunny 70 21.1 46 7.8 42 42 SSW 10 17 29.93 1013 10 16 N/A
6:56 pm 18:56 Sunny 68 20 47 8.3 47 47 S 8 13 29.91 1013 10 16 N/A
7:56 pm 19:56 Clear 63 17.2 48 8.9 58 58 SSE 5 7 29.90 1012 10 16 N/A
8:56 pm 20:56 Clear 60 15.6 52 11.1 75 75 SSE 6 9 29.89 1012 10 16 N/A
9:56 pm 21:56 Clear 59 15 53 11.7 81 81 SSE 8 13 29.87 1012 10 16 N/A
10:56 pm 22:56 Clear 58 14.4 56 13.3 93 93 S 7 11 29.84 1011 10 16 N/A
11:56 pm 23:56 Mostly Cloudy 58 14.4 57 13.9 97 97 SSE 8 13 29.82 1010 10 16 N/A

Powered by AerisWeather